This is the latest recevied weather packets stored in our database for station/object R1CBW-13. If no packets are shown the sender has not sent any weather packets the latest 10 day(s).
| Time | Temp. | Humidity | Pressure | Rain* | Wind** | Luminosity | Snow |
|---|---|---|---|---|---|---|---|
| 1777625198 | 11.11° C | 55% | 1019.7 hPa | 0 mm | - | - | - |
| 1777625138 | 11.11° C | 55% | 1019.7 hPa | 0 mm | - | - | - |
| 1777625078 | 11.11° C | 55% | 1019.8 hPa | 0 mm | - | - | - |
| 1777625018 | 11.11° C | 56% | 1019.8 hPa | 0 mm | - | - | - |
| 1777624958 | 10° C | 57% | 1019.8 hPa | 0 mm | - | - | - |
| 1777624898 | 10° C | 57% | 1019.9 hPa | 0 mm | - | - | - |
| 1777624838 | 10.56° C | 56% | 1019.9 hPa | 0 mm | - | - | - |
| 1777624778 | 10.56° C | 57% | 1019.9 hPa | 0 mm | - | - | - |
| 1777624718 | 10.56° C | 56% | 1019.9 hPa | 0 mm | - | - | - |
| 1777624658 | 11.11° C | 55% | 1019.9 hPa | 0 mm | - | - | - |
| 1777624598 | 10.56° C | 56% | 1019.8 hPa | 0 mm | - | - | - |
| 1777624538 | 10° C | 57% | 1019.9 hPa | 0 mm | - | - | - |
| 1777624478 | 11.11° C | 56% | 1019.8 hPa | 0 mm | - | - | - |
| 1777624418 | 10.56° C | 56% | 1019.9 hPa | 0 mm | - | - | - |
| 1777624358 | 11.11° C | 55% | 1019.8 hPa | 0 mm | - | - | - |
| 1777624298 | 10.56° C | 56% | 1019.8 hPa | 0 mm | - | - | - |
| 1777624238 | 10.56° C | 56% | 1019.8 hPa | 0 mm | - | - | - |
| 1777624178 | 10.56° C | 56% | 1019.8 hPa | 0 mm | - | - | - |
| 1777624118 | 10.56° C | 56% | 1019.8 hPa | 0 mm | - | - | - |
| 1777624058 | 10.56° C | 56% | 1019.8 hPa | 0 mm | - | - | - |
| 1777623998 | 10.56° C | 57% | 1019.8 hPa | 0 mm | - | - | - |
| 1777623938 | 10° C | 57% | 1020 hPa | 0 mm | - | - | - |
| 1777623878 | 10° C | 57% | 1019.8 hPa | 0 mm | - | - | - |
| 1777623818 | 10.56° C | 56% | 1019.9 hPa | 0 mm | - | - | - |
| 1777623758 | 10.56° C | 55% | 1019.9 hPa | 0 mm | - | - | - |
* Rain latest hour (hover to see other rain measurements)
** Current wind speed in m/s (hover to see current wind gust speed)